Regional Weather Roundup
Issued by NWS Upton, NY

Current Version | Previous Version | Text Only | Print | Product List | Glossary On
Versions: 1 2 3 4 5 6 7 8 9 10 11 12 13 14 15 16 17 18 19 20 21 22 23 24 25 26 27
000
ASUS41 KOKX 231505
RWROKX

Regional Weather Roundup
National Weather Service New York NY
1100 AM EDT WED MAY 23 2018

Note: "FAIR" indicates few or no clouds below 12,000 feet with no
significant weather and/or obstructions to visibility.

NYZ071-072-176-178-NJZ106-104-231600-
New York City Metro Area

CITY           SKY/WX    TMP DP  RH WIND       PRES   REMARKS
Central Park   CLOUDY    70  61  73 CALM      29.97R
Bronx Bot Gard   N/A    N/A N/A N/A N3        29.96S
Bronx Lehman C   N/A     68  61  77 N8          N/A
LaGuardia Arpt PTSUNNY   71  61  70 NW12      29.94R
Queens College   N/A    N/A N/A N/A NW8         N/A
Kennedy Intl   FAIR      69  64  84 VRB5      29.94S
Breezy Point     N/A     64 N/A N/A W6          N/A
Brooklyn Coll    N/A     72  61  68 NW6         N/A
Staten Island    N/A     72  61  68 NW12        N/A
Newark/Liberty PTSUNNY   74  63  68 N15       29.93R
Teterboro      CLOUDY    72  60  66 N12G18    29.93R
$$

NYZ177-179-078>081-231600-
Long Island New York

CITY           SKY/WX    TMP DP  RH WIND       PRES   REMARKS
Jones Beach      N/A     61 N/A N/A CALM        N/A
Wantagh          N/A     64  61  88 SE2         N/A
Hempstead        N/A     70  63  78 NW2       29.97R
Matinecock Pt    N/A     64 N/A N/A E2          N/A
Farmingdale    RAIN      66  62  87 CALM      29.93S
MacArthur/ISP  CLOUDY    66  62  87 VRB3      29.93S
Stony Brook      N/A     64  59  82 NW5         N/A
Shirley        PTSUNNY   66  63  90 VRB5      29.93S
Mt Sinai Harb    N/A     66 N/A N/A NW1         N/A
Westhampton    FAIR      67  61  81 S3        29.94F
East Hampton   CLOUDY    66  60  82 W6        29.91F
Southold         N/A     63  59  88 W5          N/A
Montauk          N/A     61  59  93 W8        29.93S
$$

NYZ052-065-067-231600-
Hudson Valley

CITY           SKY/WX    TMP DP  RH WIND       PRES   REMARKS
White Plains   PTSUNNY   65  60  84 N10       29.95R
Larchmont Harb   N/A     61 N/A N/A E5          N/A
Croton On Huds   N/A     66 N/A N/A NE5         N/A
Somers           N/A     66  59  77 N7          N/A
Brewster         N/A     68  59  73 N7          N/A
Newburgh       PTSUNNY   68  63  83 NE8       29.98R
Montgomery     CLOUDY    68  61  78 NE7       29.96R
Otisville        N/A     66  55  68 NW8         N/A
Warwick          N/A     68  59  73 NW12        N/A
Suffern          N/A     66  61  82 N7          N/A
Poughkeepsie   PTSUNNY   70  58  65 NW9       29.95R
Albany         PTSUNNY   70  56  61 NW8       29.96F
$$

NJZ001-105-106-008-010-013-015-019>022-104-231600-
New Jersey

CITY           SKY/WX    TMP DP  RH WIND       PRES   REMARKS
Newark/Liberty PTSUNNY   74  63  68 N15       29.93R
Teterboro      CLOUDY    72  60  66 N12G18    29.93R
Caldwell       CLOUDY    64  60  87 VRB6      29.96R
Somerville     PTSUNNY   72  62  71 N9        29.94R
Linden         FAIR      74  63  69 N12       29.94R
Perth Amboy      N/A     70 N/A N/A NW10G16     N/A
Sussex         CLOUDY    67  58  72 N13G18    29.98R
Andover          N/A     67  60  78 N9        29.98R
Trenton        FAIR      74  64  71 NW10      29.95R
Millville      FAIR      77  66  68 NW10      29.95S
Atlantic City  PTSUNNY   75  68  78 NW12      29.94
Wrightstown    CLOUDY    71  65  81 NW10      29.93
Toms River     CLOUDY    70  64  81 NW15      29.95S
Belmar         PTSUNNY   70  63  78 NW10      29.95R
$$

PAZ047>061-062-071-231600-
Eastern Pennsylvania

CITY           SKY/WX    TMP DP  RH WIND       PRES   REMARKS
Philadelphia   FAIR      74  61  63 NW16G24   29.96
Allentown      CLOUDY    71  59  65 N14       29.98R
Scranton       CLOUDY    62  55  77 NE7       30.04R
$$

CTZ002-004>006-009-010-012-RIZ004-006-007-MAZ004-011-015-231600-
Southern New England

 In CT

CITY           SKY/WX    TMP DP  RH WIND       PRES   REMARKS
Bradley Intl   FAIR      74  57  55 VRB6      29.91S
Hartford       FAIR      72  59  63 NE5       29.91R
Danbury        PTSUNNY   67  58  72 NW8       29.95S
Wtrbury/Oxford PTSUNNY   68  59  73 NW8       29.94R
Norwalk Harbor   N/A     59 N/A N/A SW7         N/A
Bridgeport     FAIR      63  58  83 SW12      29.93R
Meriden        FAIR      71  58  63 NW6       29.91S
New Haven      PTSUNNY   63  59  87 SW9       29.92S FOG
Chester        PTSUNNY   72  61  68 NW8       29.92S
Groton         PTSUNNY   61  59  93 SW12      29.90S
Willimantic    FAIR      72  58  61 N9        29.90S

 In RI

CITY           SKY/WX    TMP DP  RH WIND       PRES   REMARKS
Providence     PTSUNNY   70  57  63 NW9       29.89R
Block Island   PTSUNNY   59  57  93 W13G22    29.92S
Westerly       CLOUDY    63  59  87 SW10      29.91F

In MA

CITY           SKY/WX    TMP DP  RH WIND       PRES   REMARKS
Boston         FAIR      71  55  56 NW10      29.87R
Worcester      FAIR      68  53  58 N13       29.91R
Westfield      FAIR      75  55  49 N13       29.90S
Provincetown   FAIR      65  57  75 W8        29.89R
Nantucket      CLOUDY    57  57 100 W17       29.90R FOG
$$

ANZ330-335-338-340-345-350-353-355-231600-
Coastal Marine Observations


STATION/POSITION TIME  SKY/WX   TEMP    WIND        PRES    VSBY  WAVE
                                AIR SEA DIR/SP/G                  HT/PER
                 (UTC)          (F)     (DEG/KT/KT) (MB)    (MI)  (FT/S)
NY Harb Entrance 1450            59 55  170/  4/  4 1013.6          2/ 8
20 S Fire Island 1450            57 54  190/  4/  6 1013.8          2/ 8
23 SSW Montauk P 1450            56 55  240/  6/  8 1013.9          2/ 8
15 E Barnegat Li 1430               57                N/A           2/ 8
Hudson Canyon    1450            56 54  210/  2/  2 1013.5          2/ 8
Kings Point      1436            66 57   70/  5/  6 1014.7
Execution Rocks  NOT AVBL
Western LI Sound NOT AVBL
Central LI Sound 1430            57     260/  4/  6   N/A           0
Robbins Reef     1436            66     100/  3/  4 1014.0
$$


>>>>>>>>>>>>>>>>>>>>>>>>>>>> KEY <<<<<<<<<<<<<<<<<<<<<<<<<<<
>                                                          <
>     SKY/WX - Sky Condition/Present Weather               <
>     TMP    - Temperature in Fahrenheit                   <
>     DP     - Dew Point in Fahrenheit                     <
>     RH     - Relative Humidity in Percent                <
>     WIND   - Direction (from) and Speed in MPH           <
>     PRES   - Mean Sea Level Pressure (inches of Hg)      <
>     WCI    - Wind Chill Index                            <
>     VSB    - Visibility in Miles                         <
>     HX     - Heat Index                                  <
>     TC     - Temperature in Celsius                      <
>     VRB    - Varibale Wind Direction                     <
>                                                          <
>>>>>>>>>>>>>>>>>>>>>>>>>>>> KEY <<<<<<<<<<<<<<<<<<<<<<<<<<<




USA.gov is the U.S. government's official web portal to all federal, state and local government web resources and services.